• In Hungary
  • List of Countries
  • For 7 days
  • Water Temperature
  • Satellite Maps
  • Weather Map
  • News
  • Weather Widgets
  • user-avatar
    Login

    Hourly Weather Kokchunak

    Today, 21 August, Tuesday

    Time Temperature Precipitation Wind Pressure Humidity
    00:00 +15°C° 0 mm 1 mps 748 mmHg 64%
    01:00 +15°C° 0 mm 1 mps 748 mmHg 65%
    02:00 +15°C° 0 mm 1 mps 748 mmHg 66%
    03:00 +14°C° 0 mm 1 mps 748 mmHg 66%
    04:00 +14°C° 0 mm 1 mps 748 mmHg 63%
    05:00 +15°C° 0 mm 2 mps 748 mmHg 61%
    06:00 +16°C° 0 mm 2 mps 748 mmHg 58%
    07:00 +17°C° 0 mm 2 mps 748 mmHg 56%
    08:00 +19°C° 0 mm 2 mps 748 mmHg 51%
    09:00 +21°C° 0 mm 3 mps 748 mmHg 46%
    10:00 +23°C° 0 mm 4 mps 748 mmHg 41%
    11:00 +25°C° 0 mm 4 mps 748 mmHg 39%
    12:00 +26°C° 0 mm 5 mps 748 mmHg 37%
    13:00 +27°C° 0 mm 5 mps 748 mmHg 36%
    14:00 +28°C° 0 mm 5 mps 747 mmHg 36%
    15:00 +28°C° 0 mm 5 mps 747 mmHg 37%
    16:00 +28°C° 0 mm 5 mps 746 mmHg 40%
    17:00 +27°C° 0 mm 5 mps 746 mmHg 43%
    18:00 +26°C° 0 mm 4 mps 746 mmHg 46%
    19:00 +26°C° 0 mm 3 mps 746 mmHg 50%
    20:00 +25°C° 0 mm 3 mps 746 mmHg 51%
    21:00 +24°C° 0 mm 3 mps 746 mmHg 53%
    22:00 +22°C° 0 mm 3 mps 746 mmHg 54%
    23:00 +22°C° 0 mm 3 mps 746 mmHg 54%

    Tomorrow, 22 August, Wednesday

    Time Temperature Precipitation Wind Pressure Humidity
    00:00 +21°C° 0 mm 3 mps 746 mmHg 54%
    01:00 +21°C° 0 mm 3 mps 746 mmHg 54%
    02:00 +20°C° 0 mm 3 mps 746 mmHg 52%
    03:00 +20°C° 0 mm 3 mps 746 mmHg 50%
    04:00 +20°C° 0 mm 3 mps 745 mmHg 48%
    05:00 +20°C° 0 mm 3 mps 745 mmHg 46%
    06:00 +21°C° 0 mm 3 mps 745 mmHg 45%
    07:00 +21°C° 0 mm 3 mps 745 mmHg 44%
    08:00 +23°C° 0 mm 4 mps 745 mmHg 39%
    09:00 +27°C° 0 mm 5 mps 745 mmHg 35%
    10:00 +29°C° 0 mm 5 mps 745 mmHg 30%
    11:00 +30°C° 0 mm 6 mps 745 mmHg 28%
    12:00 +30°C° 0 mm 6 mps 745 mmHg 26%
    13:00 +32°C° 0 mm 7 mps 745 mmHg 24%
    14:00 +32°C° 0 mm 7 mps 745 mmHg 23%
    15:00 +32°C° 0 mm 7 mps 744 mmHg 22%
    16:00 +32°C° 0 mm 7 mps 744 mmHg 22%
    17:00 +30°C° 0 mm 6 mps 744 mmHg 25%
    18:00 +28°C° 0 mm 4 mps 743 mmHg 28%
    19:00 +27°C° 0 mm 3 mps 743 mmHg 31%
    20:00 +26°C° 0 mm 3 mps 743 mmHg 31%
    21:00 +25°C° 0 mm 4 mps 743 mmHg 32%
    22:00 +23°C° 0 mm 4 mps 743 mmHg 32%
    23:00 +22°C° 0 mm 4 mps 743 mmHg 31%

    Day after tomorrow, 23 August, Thursday

    Time Temperature Precipitation Wind Pressure Humidity
    00:00 +22°C° 0 mm 4 mps 743 mmHg 31%
    01:00 +21°C° 0 mm 4 mps 742 mmHg 31%
    02:00 +20°C° 0 mm 4 mps 742 mmHg 36%
    03:00 +19°C° 0 mm 4 mps 742 mmHg 41%
    04:00 +19°C° 0 mm 4 mps 742 mmHg 46%
    05:00 +18°C° 0.1 mm 4 mps 742 mmHg 53%
    06:00 +18°C° 0.1 mm 3 mps 742 mmHg 61%
    07:00 +18°C° 0.1 mm 3 mps 742 mmHg 69%
    08:00 +18°C° 0.1 mm 4 mps 742 mmHg 68%
    09:00 +19°C° 0.1 mm 4 mps 743 mmHg 67%
    10:00 +20°C° 0.1 mm 5 mps 743 mmHg 66%
    11:00 +21°C° 0 mm 5 mps 743 mmHg 57%
    12:00 +22°C° 0 mm 6 mps 743 mmHg 48%
    13:00 +23°C° 0 mm 6 mps 743 mmHg 39%
    14:00 +23°C° 0 mm 6 mps 743 mmHg 39%
    15:00 +23°C° 0 mm 7 mps 743 mmHg 39%
    16:00 +23°C° 0 mm 7 mps 744 mmHg 39%
    17:00 +22°C° 0 mm 6 mps 744 mmHg 43%
    18:00 +21°C° 0 mm 6 mps 744 mmHg 46%
    19:00 +19°C° 0 mm 5 mps 744 mmHg 50%
    20:00 +17°C° 0 mm 5 mps 745 mmHg 55%
    21:00 +17°C° 0 mm 4 mps 745 mmHg 60%
    22:00 +15°C° 0 mm 4 mps 746 mmHg 65%
    23:00 +14°C° 0 mm 4 mps 746 mmHg 67%

    24 August, Friday

    Time Temperature Precipitation Wind Pressure Humidity
    00:00 +13°C° 0 mm 4 mps 746 mmHg 70%
    01:00 +12°C° 0 mm 4 mps 746 mmHg 72%
    02:00 +12°C° 0 mm 4 mps 747 mmHg 74%
    03:00 +11°C° 0 mm 4 mps 747 mmHg 76%
    04:00 +11°C° 0 mm 4 mps 747 mmHg 78%
    05:00 +11°C° 0 mm 4 mps 747 mmHg 75%
    06:00 +10°C° 0 mm 5 mps 747 mmHg 72%
    07:00 +12°C° 0 mm 5 mps 748 mmHg 69%
    08:00 +13°C° 0 mm 6 mps 748 mmHg 61%
    09:00 +15°C° 0 mm 6 mps 748 mmHg 53%
    10:00 +16°C° 0 mm 7 mps 748 mmHg 45%
    11:00 +17°C° 0 mm 7 mps 747 mmHg 43%
    12:00 +18°C° 0 mm 7 mps 747 mmHg 40%
    13:00 +20°C° 0 mm 7 mps 747 mmHg 38%
    14:00 +20°C° 0 mm 7 mps 747 mmHg 38%
    15:00 +20°C° 0 mm 7 mps 747 mmHg 39%
    16:00 +20°C° 0 mm 7 mps 747 mmHg 40%
    17:00 +19°C° 0 mm 6 mps 747 mmHg 45%
    18:00 +17°C° 0 mm 6 mps 747 mmHg 50%
    19:00 +16°C° 0 mm 5 mps 747 mmHg 54%
    20:00 +16°C° 0 mm 5 mps 747 mmHg 60%
    21:00 +15°C° 0 mm 5 mps 747 mmHg 66%
    22:00 +14°C° 0 mm 5 mps 747 mmHg 71%
    23:00 +13°C° 0 mm 4 mps 746 mmHg 75%

    25 August, Saturday

    Time Temperature Precipitation Wind Pressure Humidity
    00:00 +13°C° 0 mm 4 mps 746 mmHg 80%
    01:00 +12°C° 0 mm 3 mps 746 mmHg 84%
    02:00 +11°C° 0 mm 3 mps 746 mmHg 87%
    03:00 +11°C° 0 mm 3 mps 746 mmHg 89%
    04:00 +10°C° 0 mm 3 mps 746 mmHg 92%
    05:00 +11°C° 0 mm 3 mps 746 mmHg 90%
    06:00 +11°C° 0 mm 4 mps 746 mmHg 87%
    07:00 +11°C° 0 mm 4 mps 747 mmHg 85%
    08:00 +13°C° 0 mm 5 mps 747 mmHg 75%
    09:00 +15°C° 0 mm 5 mps 747 mmHg 65%
    10:00 +17°C° 0 mm 6 mps 747 mmHg 55%
    11:00 +19°C° 0 mm 6 mps 747 mmHg 51%
    12:00 +20°C° 0 mm 6 mps 747 mmHg 48%
    13:00 +21°C° 0 mm 6 mps 747 mmHg 45%
    14:00 +21°C° 0 mm 6 mps 747 mmHg 45%
    15:00 +21°C° 0 mm 6 mps 747 mmHg 46%
    16:00 +21°C° 0 mm 6 mps 747 mmHg 47%
    17:00 +20°C° 0 mm 6 mps 747 mmHg 51%
    18:00 +19°C° 0 mm 5 mps 747 mmHg 56%
    19:00 +18°C° 0 mm 4 mps 747 mmHg 60%
    20:00 +17°C° 0 mm 4 mps 748 mmHg 65%
    21:00 +15°C° 0 mm 4 mps 748 mmHg 69%
    22:00 +14°C° 0 mm 3 mps 748 mmHg 74%
    23:00 +14°C° 0 mm 3 mps 748 mmHg 77%

    26 August, Sunday

    Time Temperature Precipitation Wind Pressure Humidity
    00:00 +13°C° 0 mm 3 mps 748 mmHg 79%
    01:00 +14°C° 0 mm 2 mps 748 mmHg 82%
    02:00 +13°C° 0 mm 2 mps 749 mmHg 84%
    03:00 +13°C° 0 mm 2 mps 749 mmHg 86%
    04:00 +13°C° 0 mm 2 mps 749 mmHg 88%
    05:00 +13°C° 0 mm 2 mps 749 mmHg 86%
    06:00 +13°C° 0 mm 3 mps 749 mmHg 84%
    07:00 +13°C° 0 mm 3 mps 749 mmHg 81%
    08:00 +17°C° 0 mm 3 mps 749 mmHg 73%
    09:00 +19°C° 0 mm 4 mps 749 mmHg 64%
    10:00 +21°C° 0 mm 4 mps 749 mmHg 55%
    11:00 +22°C° 0 mm 5 mps 749 mmHg 50%
    12:00 +23°C° 0 mm 5 mps 748 mmHg 46%
    13:00 +25°C° 0 mm 5 mps 748 mmHg 41%
    14:00 +25°C° 0 mm 5 mps 748 mmHg 41%
    15:00 +24°C° 0 mm 6 mps 748 mmHg 41%
    16:00 +24°C° 0 mm 6 mps 747 mmHg 41%
    17:00 +23°C° 0 mm 5 mps 747 mmHg 46%
    18:00 +22°C° 0 mm 5 mps 747 mmHg 50%
    19:00 +20°C° 0 mm 4 mps 747 mmHg 55%
    20:00 +19°C° 0 mm 4 mps 748 mmHg 60%
    21:00 +18°C° 0 mm 4 mps 748 mmHg 65%
    22:00 +17°C° 0 mm 4 mps 748 mmHg 70%
    23:00 +17°C° 0 mm 4 mps 748 mmHg 72%
    Show more